• MPC Preparation (Info)

  • MPEC 2014-U72 : 2014 UU56

    The following Minor Planet Electronic Circular may be linked-to from your own Web pages, but must not otherwise be redistributed electronically.

    A form allowing access to any MPEC is at the bottom of this page.


    Read MPEC 2014-U71 Read MPEC 2014-U73


    M.P.E.C. 2014-U72                                Issued 2014 Oct. 26, 14:49 UT
    
         The Minor Planet Electronic Circulars contain information on unusual
             minor planets and routine data on comets.  They are published
       on behalf of Commission 20 of the International Astronomical Union by the
              Minor Planet Center, Smithsonian Astrophysical Observatory,
                              Cambridge, MA 02138, U.S.A.
    
                 Prepared using the Tamkin Foundation Computer Network
    
                                  MPC@CFA.HARVARD.EDU
                URL https://www.minorplanetcenter.net/    ISSN 1523-6714
    
                                       2014 UU56
    
    Observations:
         K14U56U* C2014 10 24.32451 01 32 14.92 +07 19 46.8          20.4 VqEU072G96
         K14U56U  C2014 10 24.33058 01 32 15.24 +07 19 58.1          20.6 VqEU072G96
         K14U56U  C2014 10 24.33667 01 32 15.59 +07 20 08.4          20.6 VqEU072G96
         K14U56U  C2014 10 24.34276 01 32 15.94 +07 20 19.4          20.0 VqEU072G96
         K14U56U  C2014 10 24.37567 01 32 17.98 +07 21 15.1          20.6 VqEU072G96
         K14U56U  C2014 10 24.37928 01 32 18.25 +07 21 21.3          20.6 VqEU072G96
         K14U56U  C2014 10 24.38289 01 32 18.54 +07 21 27.2          20.4 VqEU072G96
         K14U56U  C2014 10 24.38649 01 32 18.77 +07 21 33.7          20.7 VqEU072G96
         K14U56U  C2014 10 25.11915401 34 39.82 +07 40 30.0          19.9 RtEU072H01
         K14U56U  C2014 10 25.12260201 34 40.05 +07 40 35.4          20.4 RtEU072H01
         K14U56U  C2014 10 25.13300901 34 40.69 +07 40 51.5          20.3 RtEU072H01
         K14U56U  C2014 10 25.14245101 34 41.21 +07 41 06.0          20.4 RtEU072H01
         K14U56U HC2014 10 26.15502 01 36 35.32 +08 00 51.9                oEU072291
         K14U56U HC2014 10 26.15841 01 36 35.41 +08 00 56.1                oEU072291
         K14U56U HC2014 10 26.16179 01 36 35.51 +08 00 59.9                oEU072291
    
    Observer details:
    291 LPL/Spacewatch II.  Observer A. F. Tubbiolo.  1.8-m f/2.7 reflector + CCD.
    G96 Mt. Lemmon Survey.  Observer E. J. Christensen.  Measurers
        E. J. Christensen, A. R. Gibbs, A. D. Grauer, R. E. Hill, J. A. Johnson,
        R. A. Kowalski, S. M. Larson, F. C. Shelly.  1.5-m reflector + CCD.
    H01 Magdalena Ridge Observatory, Socorro.  Observers W. H. Ryan, E. V. Ryan.
        Measurer W. H. Ryan.  2.4-m f/8.9 reflector + CCD.
    
    Orbital elements:
    2014 UU56                                                Earth MOID = 0.0004 AU
    Epoch 2014 Dec. 9.0 TT = JDT 2457000.5                  MPC
    M  97.40703              (2000.0)            P               Q
    n   0.85085585     Peri.  100.75809     +0.53501310     +0.84484125
    a   1.1029743      Node   201.58709     -0.77730184     +0.49128359
    e   0.2630121      Incl.    0.32099     -0.33100277     +0.21185772
    P   1.16           H   28.0           G   0.15           U   7
    Residuals in seconds of arc
    141024 G96  0.3-  0.4-    141024 G96  0.1+  0.1+    141025 H01  0.1+  0.2-
    141024 G96  0.3-  0.2+    141024 G96  0.5+  0.0     141025 H01  0.0   0.1-
    141024 G96  0.0   0.2-    141024 G96  0.0   0.6+    141026 291  0.1-  0.2-
    141024 G96  0.1+  0.2+    141025 H01  0.0   0.2-    141026 291  0.1-  0.2+
    141024 G96  0.2-  0.1-    141025 H01  0.1+  0.1-    141026 291  0.1+  0.1+
    
    Ephemeris:
    2014 UU56                a,e,i = 1.10, 0.26, 0                   q = 0.8129
    Date    TT    R. A. (2000) Decl.     Delta      r     Elong.  Phase     V
    2014 09 26    13 37 28.9 -08 36 41   0.1178  0.8956    23.1   153.9    32.4
    ...
    2014 10 11    13 47 02.5 -09 46 22   0.04062 0.9586    11.0   168.5
    ...
    2014 10 19    16 01 33.1 -27 04 04   0.0028310.9940    38.8   141.1    22.2
    ...
    2014 10 25    01 34 08.5 +07 40 23   0.02652 1.0209   173.0     6.8    20.7
    2014 10 26    01 36 08.5 +08 00 17   0.03132 1.0254   172.7     7.1    21.1
    2014 10 27    01 37 38.1 +08 15 05   0.03614 1.0298   172.1     7.6    21.4
    ...
    2014 11 02    01 42 24.5 +09 01 15   0.06561 1.0566   167.6    11.6    22.9
    ...
    2014 11 10    01 46 01.9 +09 32 40   0.1068  1.0918   160.7    17.5    24.3
    ...
    2014 11 25    01 54 07.0 +10 30 37   0.1928  1.1549   147.8    27.1    26.0
    
    A. U. Tomatic                (C) Copyright 2014 MPC           M.P.E.C. 2014-U72
    

    Read MPEC 2014-U71 Read MPEC 2014-U73


    MPEC number:

    Enter an MPEC number in one of the following forms:

    • 1997-B01 (the full form)
    • J97B01 (the packed version of the full form)
    • B01 (the abbreviated form)